ONEWEB-0626, 55167

Orbit data source: Space-Track

ONEWEB-0626, 55167 is a payload satellite owned by One Web (NAA) (UK) in LEO that was launched on Tue, 10 Jan 2023 UTC via an FALCON 9 launch vehicle from the Air Force Eastern Test Range (AFETR). Payload-class satellites include a variety of spacecraft equipped with specific instruments for various scientific and technological missions. These include communications satellites like Starlink; space stations such as the ISS; scientific satellites like the Hubble; Earth observation satellites from companies like Planet Labs, Umbra, and HawkEye 360; GPS; miniature CubeSats for education and research; and military/defense satellites.

Loading next visibility...
Identifier
55167, 2023-004AD
Orbit
LEO
Country
Flag of UKUK
Related business
Manufacturer
One Web
Mission
Operational Commercial Communications
Bus & Motor
ARROW, Unknown motor
Mass
148 kg wet, ~140 kg dry
Launch date (UTC)
2023-01-10 (3 years ago)
Launch vehicle
FALCON 9
Launch site
Air Force Eastern Test Range (AFETR)
Object type
Payload
Rocket body
Debris
Shape & HBR
Trap Box + 2 Pan, 6.7 m
Radar Cross Section
3.464 m², Large (>1 m²)

Expand to show TLE details & history
Last TLE update: 2 days ago

TLE from 2 days ago
0 ONEWEB-0626
1 55167U 23004AD  26170.95943930  .00000832  00000-0  21090-2 0  9998
2 55167  87.9132   5.3230 0001982 100.1826 259.9530 13.17650240167946
Epoch: 2026-06-19T23:01Z
TLE epoch observation values (Epoch: 2026-06-19T23:01:35.555Z)
Latitude
0.00006°
Longitude
111.74392°
Altitude
1,196.869 km
Speed
7.255 km/s
True Right ascension
00h 21m 17s
True Declination
0° 00' 00"
Sunlit
Object was in daylight at epoch
Visualization orbit readout
Latitude
Unknown
Longitude
Unknown
Altitude
Unknown
Speed
Unknown
Apparent Right ascension
Unknown
Apparent Declination
Unknown
Sunlit
N/A
Visualization observer readout
Local Sidereal Time
21:29:58
Azimuth
Unknown
Elevation
Unknown
Doppler factor
Unknown
Orbital elements
Apogee altitude
1,192.317 km
Perigee altitude
1,189.317 km
Semi-major axis
7,568.954 km
Eccentricity
0.0002
Inclination
87.9132°
RAAN
5.323°
Arg. of periapsis
100.1826°
True anomaly
259.93064°
Mean anomaly
259.953°
Eccentric anomaly
259.94182°
Mean motion
3.29602 °/min
Orbital period
109.22 mins
BSTAR
0.002109
Loading maneuver chart data...
Computing Atmospheric mass density...
Loading historical data...
Loading historical data...
Loading historical data...
Loading historical data...
Loading historical data...
Loading historical data...
Loading historical data...

Documentation

Showing up to 5 results
|